| time (UTC) | temp F | wind direction | speed MPH | gust MPH | rain 1hr in | rain 24hr in | rain mn in | humidity % | barometer mb |
| 20260906103001 | 77 | 15 | 2.0 | 3.0 | 0.00 | 0.00 | 0.00 | 9 | 1007.8 |
| 20260906102819 | 78 | 340 | 2.0 | 3.0 | 0.00 | 0.00 | 0.00 | 91 | 1008.7 |
| 20260906102001 | 77 | 285 | 1.0 | 2.0 | 0.00 | 0.00 | 0.00 | 9 | 1008.0 |
| 20260906101828 | 78 | 268 | 1.0 | 2.0 | 0.00 | 0.00 | 0.00 | 91 | 1008.7 |
| 20260906101001 | 77 | 223 | 1.0 | 2.0 | 0.00 | 0.00 | 0.00 | 9 | 1007.6 |
| 20260906100840 | 78 | 223 | 0.0 | 1.0 | 0.00 | 0.00 | 0.00 | 91 | 1008.2 |
| 20260906100002 | 77 | 235 | 2.0 | 2.0 | 0.00 | 0.00 | 0.00 | 9 | 1007.1 |
| 20260906095828 | 78 | 240 | 2.0 | 3.0 | 0.00 | 0.00 | 0.00 | 91 | 1007.9 |
| 20260906095002 | 77 | 240 | 1.0 | 2.0 | 0.00 | 0.00 | 0.00 | 9 | 1007.2 |
| 20260906094822 | 78 | 240 | 1.0 | 2.0 | 0.00 | 0.00 | 0.00 | 91 | 1008.0 |
| 20260906094002 | 77 | 211 | 0.0 | 1.0 | 0.00 | 0.00 | 0.00 | 9 | 1007.1 |
| 20260906093830 | 78 | 215 | 1.0 | 1.0 | 0.00 | 0.00 | 0.00 | 90 | 1007.9 |
| 20260906093002 | 78 | 215 | 0.0 | 1.0 | 0.00 | 0.00 | 0.00 | 9 | 1007.0 |
| 20260906092825 | 78 | 0.0 | 0.0 | 0.00 | 0.00 | 0.00 | 90 | 1007.5 | |
| 20260906092002 | 78 | 215 | 0.0 | 1.0 | 0.00 | 0.00 | 0.00 | 9 | 1007.0 |
| 20260906091838 | 78 | 221 | 1.0 | 2.0 | 0.00 | 0.00 | 0.00 | 90 | 1007.6 |
| 20260906091002 | 78 | 192 | 0.0 | 1.0 | 0.00 | 0.00 | 0.00 | 9 | 1006.8 |
| 20260906090827 | 79 | 192 | 1.0 | 1.0 | 0.00 | 0.00 | 0.00 | 90 | 1007.7 |
| 20260906090002 | 78 | 216 | 1.0 | 2.0 | 0.00 | 0.00 | 0.00 | 9 | 1007.0 |
| 20260906085821 | 79 | 209 | 2.0 | 3.0 | 0.00 | 0.00 | 0.00 | 90 | 1007.8 |
| 20260906085001 | 78 | 215 | 0.0 | 1.0 | 0.00 | 0.00 | 0.00 | 9 | 1007.0 |
| 20260906084830 | 79 | 238 | 2.0 | 3.0 | 0.00 | 0.00 | 0.00 | 90 | 1007.8 |
| 20260906084001 | 78 | 251 | 2.0 | 4.0 | 0.00 | 0.00 | 0.00 | 9 | 1007.2 |
| 20260906083822 | 79 | 267 | 1.0 | 3.0 | 0.00 | 0.00 | 0.00 | 90 | 1008.2 |
| 20260906083001 | 78 | 313 | 2.0 | 4.0 | 0.00 | 0.00 | 0.00 | 9 | 1007.2 |
| 20260906082816 | 79 | 1 | 2.0 | 4.0 | 0.00 | 0.00 | 0.00 | 90 | 1008.1 |
| 20260906082001 | 78 | 315 | 1.0 | 2.0 | 0.00 | 0.00 | 0.00 | 9 | 1007.4 |
| 20260906081824 | 79 | 315 | 1.0 | 2.0 | 0.00 | 0.00 | 0.00 | 90 | 1008.4 |
| 20260906081001 | 78 | 280 | 1.0 | 2.0 | 0.00 | 0.00 | 0.00 | 8 | 1007.3 |
| 20260906080839 | 79 | 266 | 1.0 | 1.0 | 0.00 | 0.00 | 0.00 | 89 | 1007.9 |
| 20260906080001 | 78 | 262 | 1.0 | 2.0 | 0.00 | 0.00 | 0.00 | 9 | 1007.0 |
| 20260906075828 | 78 | 275 | 1.0 | 2.0 | 0.00 | 0.00 | 0.00 | 89 | 1007.7 |
| 20260906075001 | 78 | 270 | 2.0 | 3.0 | 0.00 | 0.00 | 0.00 | 8 | 1007.1 |
| 20260906074819 | 78 | 273 | 1.0 | 2.0 | 0.00 | 0.00 | 0.00 | 89 | 1007.6 |
| 20260906074001 | 78 | 289 | 2.0 | 3.0 | 0.00 | 0.00 | 0.00 | 8 | 1007.0 |
| 20260906073828 | 78 | 279 | 3.0 | 4.0 | 0.00 | 0.00 | 0.00 | 89 | 1007.6 |
| 20260906073001 | 78 | 264 | 1.0 | 1.0 | 0.00 | 0.00 | 0.00 | 8 | 1007.0 |
| 20260906072821 | 78 | 248 | 1.0 | 2.0 | 0.00 | 0.00 | 0.00 | 89 | 1007.7 |
| 20260906072001 | 77 | 257 | 2.0 | 3.0 | 0.00 | 0.00 | 0.00 | 9 | 1007.1 |
| 20260906071830 | 78 | 261 | 1.0 | 3.0 | 0.00 | 0.00 | 0.00 | 90 | 1007.8 |
| 20260906071001 | 77 | 266 | 3.0 | 4.0 | 0.00 | 0.00 | 0.00 | 9 | 1006.9 |
| 20260906070844 | 78 | 260 | 2.0 | 3.0 | 0.00 | 0.00 | 0.00 | 90 | 1007.7 |
| 20260906070001 | 77 | 248 | 2.0 | 2.0 | 0.00 | 0.00 | 0.00 | 9 | 1006.9 |
| 20260906065828 | 78 | 248 | 2.0 | 2.0 | 0.00 | 0.00 | 0.00 | 89 | 1007.8 |
| 20260906065001 | 77 | 284 | 1.0 | 2.0 | 0.00 | 0.00 | 0.00 | 8 | 1007.2 |
| 20260906064818 | 78 | 284 | 1.0 | 1.0 | 0.00 | 0.00 | 0.00 | 89 | 1008.0 |
| 20260906064001 | 77 | 284 | 1.0 | 2.0 | 0.00 | 0.00 | 0.00 | 8 | 1007.3 |
| 20260906063821 | 77 | 284 | 2.0 | 3.0 | 0.00 | 0.00 | 0.00 | 89 | 1008.0 |
| 20260906063001 | 77 | 230 | 1.0 | 2.0 | 0.00 | 0.00 | 0.00 | 8 | 1007.3 |
| 20260906062828 | 77 | 200 | 1.0 | 1.0 | 0.00 | 0.00 | 0.00 | 88 | 1008.0 |
| 20260906062002 | 77 | 0 | 0.0 | 0.0 | 0.00 | 0.00 | 0.00 | 8 | 1007.6 |
| 20260906061815 | 78 | 200 | 0.0 | 1.0 | 0.00 | 0.00 | 0.00 | 88 | 1008.2 |
| 20260906061002 | 77 | 0 | 0.0 | 0.0 | 0.00 | 0.00 | 0.00 | 8 | 1007.5 |
| 20260906060821 | 78 | 0.0 | 0.0 | 0.00 | 0.00 | 0.00 | 87 | 1008.4 | |
| 20260906060002 | 77 | 200 | 0.0 | 1.0 | 0.00 | 0.00 | 0.00 | 8 | 1007.9 |
| 20260906055824 | 78 | 0.0 | 0.0 | 0.00 | 0.00 | 0.00 | 87 | 1008.4 | |
| 20260906055006 | 78 | 200 | 1.0 | 1.0 | 0.00 | 0.00 | 0.00 | 8 | 1007.7 |
| 20260906054829 | 78 | 200 | 1.0 | 1.0 | 0.00 | 0.00 | 0.00 | 87 | 1008.5 |
| 20260906054001 | 78 | 200 | 0.0 | 1.0 | 0.00 | 0.00 | 0.00 | 8 | 1007.7 |
| 20260906053821 | 78 | 200 | 0.0 | 1.0 | 0.00 | 0.00 | 0.00 | 86 | 1008.5 |
| 20260906053001 | 78 | 201 | 0.0 | 1.0 | 0.00 | 0.00 | 0.00 | 8 | 1007.8 |
| 20260906052828 | 79 | 0.0 | 0.0 | 0.00 | 0.00 | 0.00 | 86 | 1008.4 | |
| 20260906052001 | 78 | 201 | 0.0 | 1.0 | 0.00 | 0.00 | 0.00 | 8 | 1008.0 |
| 20260906051820 | 79 | 0.0 | 0.0 | 0.00 | 0.00 | 0.00 | 86 | 1008.8 | |
| 20260906051001 | 78 | 0 | 0.0 | 0.0 | 0.00 | 0.00 | 0.00 | 8 | 1007.8 |
| 20260906050827 | 79 | 0.0 | 0.0 | 0.00 | 0.00 | 0.00 | 85 | 1008.6 | |
| 20260906050001 | 78 | 0 | 0.0 | 0.0 | 0.00 | 0.00 | 0.00 | 8 | 1008.0 |
| 20260906045819 | 79 | 0.0 | 0.0 | 0.00 | 0.00 | 0.00 | 85 | 1008.6 | |
| 20260906045001 | 79 | 0 | 0.0 | 0.0 | 0.00 | 0.00 | 0.00 | 8 | 1007.8 |
| 20260906044828 | 79 | 201 | 0.0 | 1.0 | 0.00 | 0.00 | 0.00 | 85 | 1008.3 |
| 20260906044001 | 79 | 0 | 0.0 | 0.0 | 0.00 | 0.00 | 0.00 | 8 | 1007.7 |
| 20260906043820 | 80 | 0.0 | 0.0 | 0.00 | 0.00 | 0.00 | 84 | 1008.6 | |
| 20260906043001 | 79 | 0 | 0.0 | 0.0 | 0.00 | 0.00 | 0.00 | 8 | 1007.7 |
| 20260906042829 | 80 | 201 | 0.0 | 1.0 | 0.00 | 0.00 | 0.00 | 84 | 1008.6 |
| 20260906042001 | 80 | 0 | 0.0 | 0.0 | 0.00 | 0.00 | 0.00 | 8 | 1007.6 |
| 20260906041819 | 80 | 201 | 1.0 | 1.0 | 0.00 | 0.00 | 0.00 | 83 | 1008.7 |
| 20260906041001 | 80 | 201 | 0.0 | 1.0 | 0.00 | 0.00 | 0.00 | 8 | 1007.9 |
| 20260906040826 | 80 | 0.0 | 0.0 | 0.00 | 0.00 | 0.00 | 83 | 1008.5 | |
| 20260906040001 | 80 | 200 | 0.0 | 2.0 | 0.00 | 0.00 | 0.00 | 8 | 1007.6 |
| 20260906035821 | 81 | 200 | 1.0 | 2.0 | 0.00 | 0.00 | 0.00 | 82 | 1008.4 |
| 20260906035002 | 80 | 200 | 0.0 | 1.0 | 0.00 | 0.00 | 0.00 | 8 | 1007.7 |
| 20260906034827 | 81 | 200 | 1.0 | 3.0 | 0.00 | 0.00 | 0.00 | 82 | 1008.5 |
| 20260906034002 | 80 | 217 | 0.0 | 1.0 | 0.00 | 0.00 | 0.00 | 8 | 1007.6 |
| 20260906033833 | 81 | 237 | 3.0 | 4.0 | 0.00 | 0.00 | 0.00 | 82 | 1008.6 |
| 20260906033002 | 81 | 250 | 2.0 | 3.0 | 0.00 | 0.00 | 0.00 | 8 | 1007.5 |
| 20260906032825 | 81 | 239 | 2.0 | 4.0 | 0.00 | 0.00 | 0.00 | 82 | 1008.6 |
| 20260906032002 | 81 | 245 | 3.0 | 4.0 | 0.00 | 0.00 | 0.00 | 8 | 1007.6 |
| 20260906031830 | 81 | 247 | 3.0 | 4.0 | 0.00 | 0.00 | 0.00 | 81 | 1008.4 |
| 20260906031002 | 81 | 235 | 2.0 | 2.0 | 0.00 | 0.00 | 0.00 | 8 | 1007.5 |
| 20260906030819 | 82 | 226 | 1.0 | 2.0 | 0.00 | 0.00 | 0.00 | 81 | 1008.6 |
| 20260906030002 | 81 | 210 | 1.0 | 3.0 | 0.00 | 0.00 | 0.00 | 8 | 1007.6 |
| 20260906025825 | 82 | 211 | 2.0 | 3.0 | 0.00 | 0.00 | 0.00 | 80 | 1008.6 |
| 20260906025002 | 81 | 238 | 0.0 | 1.0 | 0.00 | 0.00 | 0.00 | 8 | 1007.6 |
| 20260906024817 | 82 | 237 | 1.0 | 2.0 | 0.00 | 0.00 | 0.00 | 80 | 1008.6 |
| 20260906024001 | 81 | 221 | 2.0 | 4.0 | 0.00 | 0.00 | 0.00 | 8 | 1007.4 |
| 20260906023825 | 82 | 248 | 3.0 | 4.0 | 0.00 | 0.00 | 0.00 | 80 | 1008.3 |
| 20260906023001 | 82 | 220 | 0.0 | 1.0 | 0.00 | 0.00 | 0.00 | 7 | 1007.5 |
| 20260906022829 | 82 | 230 | 1.0 | 2.0 | 0.00 | 0.00 | 0.00 | 80 | 1008.3 |
| 20260906022001 | 82 | 247 | 2.0 | 3.0 | 0.00 | 0.00 | 0.00 | 7 | 1007.3 |
| 20260906021820 | 82 | 230 | 1.0 | 2.0 | 0.00 | 0.00 | 0.00 | 79 | 1008.4 |
| 20260906021001 | 82 | 236 | 1.0 | 2.0 | 0.00 | 0.00 | 0.00 | 7 | 1007.4 |
| 20260906020826 | 82 | 240 | 1.0 | 2.0 | 0.00 | 0.00 | 0.00 | 79 | 1008.5 |
| 20260906020001 | 82 | 269 | 2.0 | 3.0 | 0.00 | 0.00 | 0.00 | 7 | 1007.5 |
| 20260906015817 | 82 | 238 | 3.0 | 7.0 | 0.00 | 0.00 | 0.00 | 79 | 1008.2 |
| 20260906015001 | 82 | 250 | 3.0 | 3.0 | 0.00 | 0.00 | 0.00 | 7 | 1006.9 |
| 20260906014823 | 83 | 229 | 2.0 | 3.0 | 0.00 | 0.00 | 0.00 | 78 | 1008.2 |
| 20260906014001 | 82 | 230 | 2.0 | 4.0 | 0.00 | 0.00 | 0.00 | 7 | 1006.8 |
| 20260906013910 | 83 | 218 | 3.0 | 6.0 | 0.00 | 0.00 | 0.00 | 79 | 1007.9 |
| 20260906013001 | 83 | 241 | 1.0 | 1.0 | 0.00 | 0.00 | 0.00 | 7 | 1006.7 |
| 20260906012823 | 83 | 241 | 2.0 | 2.0 | 0.00 | 0.00 | 0.00 | 78 | 1007.6 |
| 20260906012001 | 83 | 219 | 0.0 | 2.0 | 0.00 | 0.00 | 0.00 | 7 | 1006.3 |
| 20260906011828 | 83 | 218 | 1.0 | 3.0 | 0.00 | 0.00 | 0.00 | 78 | 1007.4 |
| 20260906011001 | 83 | 176 | 1.0 | 2.0 | 0.00 | 0.00 | 0.00 | 7 | 1006.3 |
| 20260906010839 | 84 | 203 | 3.0 | 4.0 | 0.00 | 0.00 | 0.00 | 78 | 1007.3 |
| 20260906010001 | 83 | 234 | 3.0 | 4.0 | 0.00 | 0.00 | 0.00 | 7 | 1006.2 |
| 20260906005826 | 84 | 238 | 1.0 | 2.0 | 0.00 | 0.00 | 0.00 | 78 | 1006.9 |
| 20260906005001 | 84 | 228 | 3.0 | 4.0 | 0.00 | 0.00 | 0.00 | 7 | 1006.0 |
| 20260906004816 | 84 | 247 | 4.0 | 7.0 | 0.00 | 0.00 | 0.00 | 77 | 1006.9 |
| 20260906004002 | 84 | 245 | 3.0 | 4.0 | 0.00 | 0.00 | 0.00 | 7 | 1006.1 |
| 20260906003822 | 84 | 239 | 3.0 | 6.0 | 0.00 | 0.00 | 0.00 | 77 | 1007.1 |
| 20260906003002 | 84 | 213 | 1.0 | 3.0 | 0.00 | 0.00 | 0.00 | 7 | 1006.0 |
| 20260906002828 | 85 | 212 | 2.0 | 3.0 | 0.00 | 0.00 | 0.00 | 76 | 1007.2 |
| 20260906002002 | 85 | 226 | 1.0 | 3.0 | 0.00 | 0.00 | 0.00 | 7 | 1006.0 |
| 20260906001821 | 85 | 195 | 3.0 | 6.0 | 0.00 | 0.00 | 0.00 | 75 | 1007.2 |
| 20260906001002 | 85 | 208 | 3.0 | 3.0 | 0.00 | 0.00 | 0.00 | 7 | 1006.2 |
| 20260906000825 | 86 | 221 | 1.0 | 2.0 | 0.00 | 0.00 | 0.00 | 75 | 1007.0 |
| 20260906000002 | 86 | 185 | 1.0 | 1.0 | 0.00 | 0.00 | 0.00 | 7 | 1006.4 |
| 20260905235857 | 86 | 205 | 3.0 | 4.0 | 0.00 | 0.00 | 0.00 | 74 | 1007.4 |
| 20260905235002 | 86 | 169 | 2.0 | 3.0 | 0.00 | 0.00 | 0.00 | 7 | 1006.4 |
| 20260905234823 | 87 | 186 | 3.0 | 4.0 | 0.00 | 0.00 | 0.00 | 74 | 1007.3 |
| 20260905234002 | 87 | 231 | 2.0 | 3.0 | 0.00 | 0.00 | 0.00 | 7 | 1006.3 |
| 20260905233829 | 87 | 214 | 1.0 | 3.0 | 0.00 | 0.00 | 0.00 | 74 | 1007.4 |
| 20260905233002 | 87 | 226 | 3.0 | 4.0 | 0.00 | 0.00 | 0.00 | 7 | 1006.2 |
| 20260905232819 | 88 | 213 | 3.0 | 6.0 | 0.00 | 0.00 | 0.00 | 72 | 1007.4 |
| 20260905232001 | 88 | 210 | 4.0 | 6.0 | 0.00 | 0.00 | 0.00 | 7 | 1006.1 |
| 20260905231846 | 89 | 189 | 6.0 | 9.0 | 0.00 | 0.00 | 0.00 | 71 | 1007.4 |
| 20260905231001 | 89 | 203 | 7.0 | 8.0 | 0.00 | 0.00 | 0.00 | 7 | 1006.4 |
| 20260905230819 | 90 | 230 | 7.0 | 14.0 | 0.00 | 0.00 | 0.00 | 70 | 1007.2 |
| 20260905230001 | 90 | 185 | 1.0 | 2.0 | 0.00 | 0.00 | 0.00 | 6 | 1006.0 |
| 20260905225825 | 91 | 188 | 3.0 | 6.0 | 0.00 | 0.00 | 0.00 | 69 | 1007.0 |
| 20260905225001 | 91 | 261 | 2.0 | 4.0 | 0.00 | 0.00 | 0.00 | 6 | 1005.8 |
| 20260905224910 | 92 | 225 | 7.0 | 16.0 | 0.00 | 0.00 | 0.00 | 67 | 1006.9 |
| 20260905224001 | 92 | 197 | 9.0 | 14.0 | 0.00 | 0.00 | 0.00 | 6 | 1006.0 |
| 20260905223818 | 93 | 242 | 7.0 | 11.0 | 0.00 | 0.00 | 0.00 | 66 | 1006.9 |
| 20260905223001 | 93 | 171 | 5.0 | 6.0 | 0.00 | 0.00 | 0.00 | 6 | 1005.8 |
| 20260905222819 | 93 | 214 | 8.0 | 19.0 | 0.00 | 0.00 | 0.00 | 65 | 1006.8 |
| 20260905222001 | 93 | 178 | 4.0 | 5.0 | 0.00 | 0.00 | 0.00 | 6 | 1005.6 |
| 20260905221825 | 94 | 216 | 6.0 | 13.0 | 0.00 | 0.00 | 0.00 | 65 | 1006.9 |
| 20260905221001 | 94 | 237 | 7.0 | 9.0 | 0.00 | 0.00 | 0.00 | 6 | 1005.5 |
| 20260905220829 | 94 | 205 | 4.0 | 9.0 | 0.00 | 0.00 | 0.00 | 64 | 1006.9 |
| 20260905220001 | 94 | 168 | 2.0 | 3.0 | 0.00 | 0.00 | 0.00 | 6 | 1005.3 |
| 20260905215817 | 95 | 173 | 4.0 | 6.0 | 0.00 | 0.00 | 0.00 | 64 | 1006.8 |
| 20260905215001 | 94 | 230 | 4.0 | 5.0 | 0.00 | 0.00 | 0.00 | 6 | 1005.4 |
| 20260905214845 | 95 | 201 | 4.0 | 8.0 | 0.00 | 0.00 | 0.00 | 63 | 1006.9 |
| 20260905214001 | 95 | 99 | 3.0 | 4.0 | 0.00 | 0.00 | 0.00 | 6 | 1005.4 |
| 20260905213816 | 95 | 133 | 3.0 | 4.0 | 0.00 | 0.00 | 0.00 | 63 | 1006.9 |
| 20260905213001 | 95 | 165 | 0.0 | 1.0 | 0.00 | 0.00 | 0.00 | 6 | 1005.6 |
| 20260905212839 | 96 | 129 | 4.0 | 6.0 | 0.00 | 0.00 | 0.00 | 63 | 1007.1 |
| 20260905212002 | 96 | 118 | 6.0 | 9.0 | 0.00 | 0.00 | 0.00 | 6 | 1005.6 |
| 20260905211824 | 96 | 168 | 2.0 | 6.0 | 0.00 | 0.00 | 0.00 | 62 | 1007.1 |
| 20260905211002 | 96 | 162 | 4.0 | 5.0 | 0.00 | 0.00 | 0.00 | 6 | 1006.0 |
| 20260905210829 | 96 | 157 | 2.0 | 3.0 | 0.00 | 0.00 | 0.00 | 62 | 1006.9 |
| 20260905210002 | 97 | 84 | 1.0 | 4.0 | 0.00 | 0.00 | 0.00 | 6 | 1005.8 |
| 20260905205815 | 97 | 189 | 4.0 | 7.0 | 0.00 | 0.00 | 0.00 | 61 | 1007.0 |
| 20260905205002 | 97 | 164 | 3.0 | 4.0 | 0.00 | 0.00 | 0.00 | 6 | 1005.8 |
| 20260905204820 | 97 | 244 | 3.0 | 4.0 | 0.00 | 0.00 | 0.00 | 61 | 1007.3 |
| 20260905204002 | 96 | 84 | 2.0 | 3.0 | 0.00 | 0.00 | 0.00 | 6 | 1005.9 |
| 20260905203902 | 97 | 218 | 4.0 | 6.0 | 0.00 | 0.00 | 0.00 | 61 | 1007.1 |
| 20260905203002 | 96 | 121 | 6.0 | 9.0 | 0.00 | 0.00 | 0.00 | 6 | 1006.0 |
| 20260905202825 | 96 | 112 | 4.0 | 6.0 | 0.00 | 0.00 | 0.00 | 62 | 1007.3 |
| 20260905202002 | 95 | 238 | 4.0 | 6.0 | 0.00 | 0.00 | 0.00 | 6 | 1006.2 |
| 20260905201827 | 95 | 232 | 6.0 | 9.0 | 0.00 | 0.00 | 0.00 | 63 | 1007.4 |
| 20260905201001 | 94 | 203 | 5.0 | 6.0 | 0.00 | 0.00 | 0.00 | 6 | 1006.1 |
| 20260905200830 | 94 | 216 | 2.0 | 3.0 | 0.00 | 0.00 | 0.00 | 64 | 1007.4 |
| 20260905200001 | 94 | 99 | 4.0 | 5.0 | 0.00 | 0.00 | 0.00 | 6 | 1006.3 |
| 20260905195821 | 95 | 132 | 7.0 | 15.0 | 0.00 | 0.00 | 0.00 | 62 | 1007.4 |
| 20260905195001 | 95 | 110 | 2.0 | 3.0 | 0.00 | 0.00 | 0.00 | 6 | 1006.4 |
| 20260905194824 | 96 | 109 | 2.0 | 4.0 | 0.00 | 0.00 | 0.00 | 61 | 1007.6 |
| 20260905194001 | 96 | 194 | 4.0 | 5.0 | 0.00 | 0.00 | 0.00 | 6 | 1006.2 |
| 20260905193827 | 96 | 115 | 2.0 | 6.0 | 0.00 | 0.00 | 0.00 | 61 | 1007.4 |
| 20260905193001 | 96 | 145 | 1.0 | 2.0 | 0.00 | 0.00 | 0.00 | 6 | 1006.4 |
| 20260905192830 | 96 | 222 | 4.0 | 4.0 | 0.00 | 0.00 | 0.00 | 62 | 1007.6 |
| 20260905192001 | 95 | 107 | 0.0 | 1.0 | 0.00 | 0.00 | 0.00 | 6 | 1006.4 |
| 20260905191820 | 95 | 175 | 2.0 | 4.0 | 0.00 | 0.00 | 0.00 | 63 | 1007.8 |
| 20260905191001 | 95 | 277 | 4.0 | 5.0 | 0.00 | 0.00 | 0.00 | 6 | 1006.7 |
| 20260905190825 | 96 | 172 | 1.0 | 4.0 | 0.00 | 0.00 | 0.00 | 63 | 1008.1 |
| 20260905190001 | 95 | 228 | 6.0 | 8.0 | 0.00 | 0.00 | 0.00 | 6 | 1006.9 |
| 20260905185829 | 95 | 222 | 6.0 | 11.0 | 0.00 | 0.00 | 0.00 | 65 | 1008.2 |
| 20260905185001 | 95 | 245 | 4.0 | 5.0 | 0.00 | 0.00 | 0.00 | 6 | 1006.9 |
| 20260905184837 | 95 | 243 | 7.0 | 9.0 | 0.00 | 0.00 | 0.00 | 64 | 1008.4 |
| 20260905184001 | 95 | 207 | 3.0 | 5.0 | 0.00 | 0.00 | 0.00 | 6 | 1007.2 |
| 20260905183821 | 96 | 231 | 5.0 | 8.0 | 0.00 | 0.00 | 0.00 | 64 | 1008.6 |
| 20260905183001 | 95 | 201 | 4.0 | 5.0 | 0.00 | 0.00 | 0.00 | 6 | 1007.4 |
| 20260905182824 | 96 | 221 | 5.0 | 8.0 | 0.00 | 0.00 | 0.00 | 64 | 1008.9 |
| 20260905182002 | 96 | 235 | 2.0 | 4.0 | 0.00 | 0.00 | 0.00 | 6 | 1007.4 |
| 20260905181910 | 96 | 205 | 5.0 | 8.0 | 0.00 | 0.00 | 0.00 | 65 | 1008.9 |
| 20260905181002 | 95 | 171 | 4.0 | 5.0 | 0.00 | 0.00 | 0.00 | 6 | 1007.8 |
| 20260905180823 | 95 | 192 | 5.0 | 9.0 | 0.00 | 0.00 | 0.00 | 65 | 1009.0 |
| 20260905180002 | 94 | 227 | 4.0 | 6.0 | 0.00 | 0.00 | 0.00 | 6 | 1007.9 |
| 20260905175829 | 94 | 219 | 5.0 | 8.0 | 0.00 | 0.00 | 0.00 | 67 | 1009.0 |
| 20260905175002 | 93 | 255 | 4.0 | 8.0 | 0.00 | 0.00 | 0.00 | 6 | 1007.8 |
| 20260905174823 | 93 | 217 | 4.0 | 8.0 | 0.00 | 0.00 | 0.00 | 66 | 1009.2 |
| 20260905174002 | 93 | 246 | 5.0 | 5.0 | 0.00 | 0.00 | 0.00 | 6 | 1008.2 |
| 20260905173816 | 94 | 225 | 5.0 | 8.0 | 0.00 | 0.00 | 0.00 | 65 | 1009.3 |
| 20260905173002 | 94 | 266 | 3.0 | 8.0 | 0.00 | 0.00 | 0.00 | 6 | 1008.2 |
| 20260905172824 | 95 | 9 | 3.0 | 8.0 | 0.00 | 0.00 | 0.00 | 62 | 1009.3 |
| 20260905172002 | 96 | 187 | 2.0 | 3.0 | 0.00 | 0.00 | 0.00 | 6 | 1008.3 |
| 20260905171836 | 96 | 200 | 3.0 | 7.0 | 0.00 | 0.00 | 0.00 | 57 | 1009.6 |
| 20260905171001 | 96 | 79 | 2.0 | 2.0 | 0.00 | 0.00 | 0.00 | 5 | 1008.2 |
| 20260905170823 | 96 | 79 | 2.0 | 6.0 | 0.00 | 0.00 | 0.00 | 57 | 1009.4 |
| 20260905170001 | 95 | 96 | 2.0 | 3.0 | 0.00 | 0.00 | 0.00 | 5 | 1008.4 |
| 20260905165830 | 96 | 75 | 3.0 | 4.0 | 0.00 | 0.00 | 0.00 | 56 | 1009.8 |
| 20260905165001 | 94 | 0 | 1.0 | 2.0 | 0.00 | 0.00 | 0.00 | 5 | 1008.7 |
| 20260905164821 | 95 | 331 | 3.0 | 4.0 | 0.00 | 0.00 | 0.00 | 56 | 1010.0 |
| 20260905164001 | 94 | 27 | 6.0 | 8.0 | 0.00 | 0.00 | 0.00 | 5 | 1008.8 |
| 20260905163828 | 95 | 31 | 4.0 | 6.0 | 0.00 | 0.00 | 0.00 | 57 | 1010.1 |
| 20260905163001 | 94 | 48 | 5.0 | 8.0 | 0.00 | 0.00 | 0.00 | 5 | 1009.0 |
| 20260905162826 | 95 | 12 | 6.0 | 8.0 | 0.00 | 0.00 | 0.00 | 57 | 1009.9 |
| 20260905162001 | 94 | 43 | 5.0 | 8.0 | 0.00 | 0.00 | 0.00 | 5 | 1009.2 |
| 20260905161843 | 94 | 7 | 2.0 | 2.0 | 0.00 | 0.00 | 0.00 | 60 | 1010.0 |
| 20260905161001 | 94 | 39 | 5.0 | 8.0 | 0.00 | 0.00 | 0.00 | 5 | 1009.1 |
| 20260905160827 | 94 | 54 | 3.0 | 6.0 | 0.00 | 0.00 | 0.00 | 60 | 1010.1 |
| 20260905160001 | 93 | 37 | 4.0 | 4.0 | 0.00 | 0.00 | 0.00 | 6 | 1008.8 |
| 20260905155817 | 94 | 20 | 4.0 | 7.0 | 0.00 | 0.00 | 0.00 | 62 | 1010.3 |
| 20260905155001 | 93 | 283 | 3.0 | 4.0 | 0.00 | 0.00 | 0.00 | 6 | 1009.1 |
| 20260905154835 | 93 | 246 | 3.0 | 7.0 | 0.00 | 0.00 | 0.00 | 65 | 1010.1 |
| 20260905154002 | 92 | 275 | 2.0 | 3.0 | 0.00 | 0.00 | 0.00 | 6 | 1008.9 |
| 20260905153829 | 92 | 352 | 3.0 | 4.0 | 0.00 | 0.00 | 0.00 | 65 | 1010.1 |
| 20260905153001 | 91 | 311 | 7.0 | 10.0 | 0.00 | 0.00 | 0.00 | 6 | 1009.0 |
| 20260905152842 | 91 | 334 | 4.0 | 7.0 | 0.00 | 0.00 | 0.00 | 67 | 1010.0 |
| 20260905152002 | 91 | 33 | 5.0 | 10.0 | 0.00 | 0.00 | 0.00 | 6 | 1008.9 |
| 20260905151815 | 91 | 315 | 5.0 | 7.0 | 0.00 | 0.00 | 0.00 | 68 | 1010.2 |
| 20260905151002 | 91 | 274 | 6.0 | 8.0 | 0.00 | 0.00 | 0.00 | 6 | 1009.1 |
| 20260905150823 | 91 | 314 | 6.0 | 8.0 | 0.00 | 0.00 | 0.00 | 69 | 1010.1 |
| 20260905150002 | 90 | 337 | 4.0 | 6.0 | 0.00 | 0.00 | 0.00 | 6 | 1009.1 |
| 20260905145836 | 90 | 12 | 1.0 | 4.0 | 0.00 | 0.00 | 0.00 | 69 | 1010.0 |
| 20260905145002 | 89 | 312 | 4.0 | 5.0 | 0.00 | 0.00 | 0.00 | 7 | 1009.0 |
| 20260905144824 | 90 | 6 | 3.0 | 6.0 | 0.00 | 0.00 | 0.00 | 70 | 1010.4 |
| 20260905144002 | 89 | 287 | 1.0 | 1.0 | 0.00 | 0.00 | 0.00 | 7 | 1009.1 |
| 20260905143817 | 89 | 305 | 3.0 | 7.0 | 0.00 | 0.00 | 0.00 | 71 | 1010.2 |
| 20260905143001 | 88 | 351 | 4.0 | 5.0 | 0.00 | 0.00 | 0.00 | 7 | 1008.9 |
| 20260905142825 | 88 | 295 | 4.0 | 9.0 | 0.00 | 0.00 | 0.00 | 73 | 1010.3 |
| 20260905142001 | 87 | 344 | 2.0 | 3.0 | 0.00 | 0.00 | 0.00 | 7 | 1009.3 |
| 20260905141819 | 87 | 356 | 3.0 | 3.0 | 0.00 | 0.00 | 0.00 | 73 | 1010.0 |
| 20260905141001 | 86 | 357 | 4.0 | 6.0 | 0.00 | 0.00 | 0.00 | 7 | 1009.1 |
| 20260905140825 | 87 | 15 | 5.0 | 9.0 | 0.00 | 0.00 | 0.00 | 74 | 1010.1 |
| 20260905140001 | 86 | 2 | 2.0 | 5.0 | 0.00 | 0.00 | 0.00 | 7 | 1009.3 |
| 20260905135819 | 86 | 283 | 2.0 | 3.0 | 0.00 | 0.00 | 0.00 | 77 | 1010.3 |
| 20260905135001 | 85 | 337 | 2.0 | 2.0 | 0.00 | 0.00 | 0.00 | 7 | 1009.5 |
| 20260905134827 | 85 | 303 | 3.0 | 7.0 | 0.00 | 0.00 | 0.00 | 79 | 1010.4 |
| 20260905134001 | 84 | 0 | 3.0 | 4.0 | 0.00 | 0.00 | 0.00 | 7 | 1009.6 |
| 20260905133840 | 84 | 308 | 3.0 | 4.0 | 0.00 | 0.00 | 0.00 | 80 | 1010.3 |
| 20260905133001 | 83 | 328 | 0.0 | 1.0 | 0.00 | 0.00 | 0.00 | 8 | 1009.5 |
| 20260905132829 | 83 | 328 | 1.0 | 2.0 | 0.00 | 0.00 | 0.00 | 82 | 1010.3 |
| 20260905132002 | 82 | 301 | 2.0 | 4.0 | 0.00 | 0.00 | 0.00 | 8 | 1009.2 |
| 20260905131903 | 82 | 312 | 3.0 | 4.0 | 0.00 | 0.00 | 0.00 | 83 | 1010.5 |
| 20260905131001 | 81 | 296 | 2.0 | 4.0 | 0.00 | 0.00 | 0.00 | 8 | 1009.3 |
| 20260905130829 | 81 | 297 | 1.0 | 2.0 | 0.00 | 0.00 | 0.00 | 85 | 1010.4 |
| 20260905130001 | 80 | 295 | 2.0 | 2.0 | 0.00 | 0.00 | 0.00 | 8 | 1009.8 |
| 20260905125822 | 80 | 295 | 1.0 | 2.0 | 0.00 | 0.00 | 0.00 | 87 | 1010.3 |
| 20260905125001 | 79 | 295 | 1.0 | 2.0 | 0.00 | 0.00 | 0.00 | 8 | 1009.5 |
| 20260905124815 | 79 | 296 | 2.0 | 2.0 | 0.00 | 0.00 | 0.00 | 88 | 1010.7 |
| 20260905124001 | 78 | 280 | 2.0 | 3.0 | 0.00 | 0.00 | 0.00 | 8 | 1009.4 |
| 20260905123823 | 78 | 281 | 1.0 | 2.0 | 0.00 | 0.00 | 0.00 | 89 | 1010.3 |
| 20260905123001 | 77 | 276 | 3.0 | 4.0 | 0.00 | 0.00 | 0.00 | 9 | 1009.6 |
| 20260905122818 | 77 | 289 | 2.0 | 3.0 | 0.00 | 0.00 | 0.00 | 91 | 1010.4 |
| 20260905122002 | 76 | 272 | 1.0 | 2.0 | 0.00 | 0.00 | 0.00 | 9 | 1009.9 |
| 20260905121845 | 76 | 267 | 1.0 | 2.0 | 0.00 | 0.00 | 0.00 | 91 | 1010.5 |
| 20260905121002 | 75 | 0 | 0.0 | 0.0 | 0.00 | 0.00 | 0.00 | 9 | 1009.5 |
| 20260905120856 | 76 | 0.0 | 0.0 | 0.00 | 0.00 | 0.00 | 91 | 1010.0 | |
| 20260905120002 | 75 | 0 | 0.0 | 0.0 | 0.00 | 0.00 | 0.00 | 9 | 1009.2 |
| 20260905115824 | 75 | 0.0 | 0.0 | 0.00 | 0.00 | 0.00 | 91 | 1010.0 | |
| 20260905115002 | 75 | 0 | 0.0 | 0.0 | 0.00 | 0.00 | 0.00 | 9 | 1009.3 |
| 20260905114817 | 76 | 252 | 0.0 | 1.0 | 0.00 | 0.00 | 0.00 | 90 | 1010.1 |
| 20260905114002 | 75 | 252 | 1.0 | 2.0 | 0.00 | 0.00 | 0.00 | 9 | 1009.3 |
| 20260905113825 | 76 | 252 | 1.0 | 2.0 | 0.00 | 0.00 | 0.00 | 91 | 1010.1 |
| 20260905113001 | 75 | 252 | 0.0 | 1.0 | 0.00 | 0.00 | 0.00 | 9 | 1009.3 |
| 20260905112819 | 76 | 252 | 0.0 | 1.0 | 0.00 | 0.00 | 0.00 | 91 | 1010.0 |
| 20260905112001 | 75 | 252 | 0.0 | 1.0 | 0.00 | 0.00 | 0.00 | 9 | 1009.1 |
| 20260905111825 | 75 | 252 | 1.0 | 1.0 | 0.00 | 0.00 | 0.00 | 91 | 1010.0 |
| 20260905111001 | 75 | 252 | 0.0 | 1.0 | 0.00 | 0.00 | 0.00 | 9 | 1009.3 |
| 20260905110838 | 75 | 252 | 1.0 | 2.0 | 0.00 | 0.00 | 0.00 | 91 | 1009.7 |
| 20260905110001 | 75 | 252 | 0.0 | 1.0 | 0.00 | 0.00 | 0.00 | 9 | 1009.3 |
| 20260905105825 | 75 | 252 | 1.0 | 2.0 | 0.00 | 0.00 | 0.00 | 91 | 1009.9 |
| 20260905105001 | 75 | 252 | 0.0 | 1.0 | 0.00 | 0.00 | 0.00 | 9 | 1009.2 |
| 20260905104819 | 75 | 0.0 | 0.0 | 0.00 | 0.00 | 0.00 | 91 | 1010.0 | |
| 20260905104001 | 75 | 0 | 0.0 | 0.0 | 0.00 | 0.00 | 0.00 | 9 | 1009.1 |
| 20260905103827 | 75 | 0.0 | 0.0 | 0.00 | 0.00 | 0.00 | 91 | 1009.7 |